Location: México DF
(19.4326°N, 99.1332°W)
Time: 21:40:38
(UTC+00:00)

ISS - Pass Details

Date: 08 September 2024
Orbit: 413 x 423 km, 51.6° (Epoch: 19 September)

Event Time Altitude Azimuth Distance (km) Brightness Sun altitude
Exits shadow 11:15:17 - 334° (NNW) 2,239 -0.2 -16.6°
Reaches altitude 10° 11:17:11 10° 343° (NNW) 1,509 -1.0 -16.1°
Maximum altitude 11:20:16 32° 49° (NE) 752 -1.9 -15.4°
Drops below altitude 10° 11:23:20 10° 114° (ESE) 1,505 -0.1 -14.7°
Sets 11:25:34 0° 124° (SE) 2,368 0.8 -14.2°
